DLH4KY EDDF-LIRF

Flight info

Callsign DLH4KY
Flight time N/A
Altitude 23000
Route CINDY8S CINDY Z74 LAMPU/N0435F370 DCT NOMBO Y161 RIDAR DCT KONIN DCT BERAS DCT LIKDA DCT BAKOR DCT VESAL DCT GAVRA DCT RITEB
Aircraft A319/M-SDE3FGHIRWY/LB1

Departure

Time 2026-04-15 13:59
Airport Frankfurt Main Airport (EDDF)

Arrival

Time N/A
Airport Rome–Fiumicino Leonardo da Vinci International Airport (LIRF)
Time Latitude Longitude Altitude Speed Heading
2026-04-15 13:51 50.04702 8.56968 359 ft 8 kts 205°
2026-04-15 13:51 50.04642 8.56926 363 ft 10 kts 204°
2026-04-15 13:52 50.04576 8.56898 360 ft 9 kts 193°
2026-04-15 13:52 50.04527 8.56880 359 ft 7 kts 193°
2026-04-15 13:52 50.04479 8.56863 359 ft 7 kts 196°
2026-04-15 13:52 50.04446 8.56807 361 ft 9 kts 253°
2026-04-15 13:53 50.04422 8.56698 360 ft 12 kts 246°
2026-04-15 13:53 50.04387 8.56559 358 ft 16 kts 250°
2026-04-15 13:53 50.04343 8.56371 356 ft 21 kts 249°
2026-04-15 13:53 50.04287 8.56144 357 ft 23 kts 249°
2026-04-15 13:54 50.04232 8.55910 359 ft 23 kts 249°
2026-04-15 13:54 50.04174 8.55668 356 ft 24 kts 250°
2026-04-15 13:54 50.04116 8.55418 354 ft 25 kts 250°
2026-04-15 13:54 50.04056 8.55174 354 ft 24 kts 249°
2026-04-15 13:55 50.04000 8.54935 355 ft 24 kts 250°
2026-04-15 13:55 50.03938 8.54682 357 ft 26 kts 250°
2026-04-15 13:55 50.03875 8.54418 353 ft 23 kts 248°
2026-04-15 13:55 50.03807 8.54249 347 ft 19 kts 239°
2026-04-15 13:56 50.03760 8.54057 350 ft 19 kts 250°
2026-04-15 13:56 50.03712 8.53854 346 ft 20 kts 250°
2026-04-15 13:56 50.03660 8.53641 349 ft 22 kts 250°
2026-04-15 13:56 50.03605 8.53419 337 ft 22 kts 249°
2026-04-15 13:57 50.03549 8.53188 336 ft 23 kts 249°
2026-04-15 13:57 50.03491 8.52947 334 ft 24 kts 249°
2026-04-15 13:57 50.03435 8.52737 335 ft 17 kts 250°
2026-04-15 13:57 50.03380 8.52577 334 ft 14 kts 196°
2026-04-15 13:58 50.03312 8.52594 335 ft 9 kts 180°
2026-04-15 13:58 50.03244 8.52595 335 ft 10 kts 179°
2026-04-15 13:58 50.03070 8.52597 335 ft 58 kts 179°
2026-04-15 13:58 50.02418 8.52604 334 ft 127 kts 180°
2026-04-15 13:59 50.01348 8.52614 415 ft 171 kts 180°
2026-04-15 13:59 50.00163 8.52607 1072 ft 170 kts 181°
2026-04-15 13:59 49.99000 8.52395 1822 ft 169 kts 184°
2026-04-15 13:59 49.97745 8.52424 2185 ft 193 kts 166°
2026-04-15 14:00 49.96529 8.53460 2508 ft 217 kts 138°
2026-04-15 14:00 49.95622 8.55443 3178 ft 228 kts 113°
2026-04-15 14:00 49.95001 8.57712 4161 ft 229 kts 118°
2026-04-15 14:00 49.94208 8.59849 5165 ft 229 kts 120°
2026-04-15 14:01 49.93753 8.65212 6301 ft 270 kts 92°
2026-04-15 14:01 49.93433 8.68102 7131 ft 275 kts 112°
2026-04-15 14:01 49.92460 8.70661 7992 ft 278 kts 133°
2026-04-15 14:02 49.90963 8.72552 8841 ft 281 kts 153°
2026-04-15 14:02 49.89188 8.73848 9743 ft 284 kts 155°
2026-04-15 14:02 49.88021 8.74801 10309 ft 287 kts 152°
2026-04-15 14:02 49.86322 8.76517 10954 ft 300 kts 145°
2026-04-15 14:03 49.84625 8.78619 11241 ft 324 kts 141°
2026-04-15 14:03 49.82873 8.81010 11601 ft 343 kts 139°
2026-04-15 14:03 49.81093 8.83533 12262 ft 350 kts 139°
2026-04-15 14:03 49.79286 8.86103 13018 ft 355 kts 139°
2026-04-15 14:04 49.77450 8.88689 13771 ft 359 kts 139°
2026-04-15 14:04 49.75580 8.91284 14452 ft 363 kts 140°
2026-04-15 14:04 49.73676 8.93893 15100 ft 367 kts 140°
2026-04-15 14:04 49.71747 8.96514 15752 ft 371 kts 140°
2026-04-15 14:05 49.69793 8.99163 16404 ft 375 kts 140°
2026-04-15 14:05 49.67821 9.01835 17043 ft 379 kts 140°
2026-04-15 14:05 49.65826 9.04534 17689 ft 383 kts 140°
2026-04-15 14:05 49.63807 9.07259 18353 ft 387 kts 140°
2026-04-15 14:06 49.61772 9.10004 18921 ft 390 kts 140°
2026-04-15 14:06 49.59716 9.12774 19465 ft 394 kts 140°
2026-04-15 14:06 49.57667 9.15532 20003 ft 398 kts 140°
2026-04-15 14:06 49.55574 9.18350 20534 ft 402 kts 140°
2026-04-15 14:07 49.53454 9.21203 21076 ft 406 kts 140°
2026-04-15 14:07 49.51320 9.24074 21612 ft 410 kts 140°
2026-04-15 14:07 49.49164 9.26971 22131 ft 414 kts 140°
2026-04-15 14:07 49.46982 9.29898 22633 ft 417 kts 140°
2026-04-15 14:08 49.44783 9.32844 23076 ft 421 kts 140°
2026-04-15 14:08 49.42569 9.35809 23189 ft 424 kts 140°
2026-04-15 14:08 49.40335 9.38795 23203 ft 425 kts 140°